Chicopee, MA

5:59 PM EDT on June 28, 2017 (GMT -0400)
Westover Air Reserve Base / Metropolitan Airport

Weather History for KCEF - January, 2014

Change the Weather History Date:

Monday, January 20, 2014

  Actual Average Record
Temperature  
Mean Temperature 30 °F -  
Max Temperature 40 °F 27 °F 55 °F (2006)
Min Temperature 20 °F 13 °F 1 °F (2005)
Degree Days  
Heating Degree Days 34    
Moisture  
Dew Point 23 °F    
Average Humidity 67    
Maximum Humidity 100    
Minimum Humidity 50    
Precipitation  
Precipitation 0.00 in - - ()
Sea Level Pressure  
Sea Level Pressure 29.65 in    
Wind  
Wind Speed 13 mph (WSW)    
Max Wind Speed 25 mph    
Max Gust Speed 33 mph    
Visibility 9 miles    
Events Snow    
Averages and records for this station are not official NWS values.
T = Trace of Precipitation, MM = Missing Value Source: NWS Daily Summary

Daily Weather History Graph

Daily Weather History Graph

Search for Another Location

Airport or City:

Trip Planner

Search our weather history database for the weather conditions in past years. The results will help you decide how hot, cold, wet, or windy it might be!

Date:

Astronomy

Jan. 20, 2014 Rise Set
Actual Time 7:13 AM EST 4:49 PM EST
Civil Twilight 6:42 AM EST 5:19 PM EST
Nautical Twilight 6:08 AM EST 5:54 PM EST
Astronomical Twilight 5:35 AM EST 6:27 PM EST
Moon 9:27 PM EST (1/20) 9:06 AM EST (1/20)
Length of Visible Light 10h 37m
Length of Day
9h 35m
Waning Gibbous, 83% of the Moon is Illuminated
Jan 20
Waning Gibbous
Jan 24
Last Quarter
Jan 30
New
Feb 6
First Quarter
Feb 14
Full

Hourly Weather History & Observations

Time (EST) Temp. Windchill Dew Point Humidity Pressure Visibility Wind Dir Wind Speed Gust Speed Precip Events Conditions
12:58 AM 31.3 °F 21.6 °F 23.7 °F 74% 29.57 in 10.0 mi South 12.7 mph - N/A   Overcast
1:58 AM 31.8 °F 22.3 °F 23.9 °F 73% 29.57 in 10.0 mi SSW 12.7 mph - N/A   Overcast
2:58 AM 32.4 °F 23.5 °F 23.5 °F 70% 29.59 in 10.0 mi SSW 11.5 mph - N/A   Overcast
3:58 AM 32.7 °F 24.5 °F 24.1 °F 71% 29.58 in 10.0 mi SSW 10.4 mph - N/A   Overcast
4:58 AM 32.7 °F 23.9 °F 23.9 °F 70% 29.59 in 10.0 mi SSW 11.5 mph - N/A   Overcast
5:58 AM 33.1 °F 23.9 °F 23.7 °F 68% 29.58 in 10.0 mi SSW 12.7 mph - N/A   Overcast
6:58 AM 32.5 °F 23.7 °F 24.4 °F 72% 29.59 in 10.0 mi SW 11.5 mph - N/A   Overcast
7:58 AM 33.1 °F 26.1 °F 24.3 °F 70% 29.60 in 10.0 mi SSW 8.1 mph - N/A   Overcast
8:58 AM 33.6 °F 27.5 °F 25.0 °F 71% 29.61 in 10.0 mi SSW 6.9 mph - N/A   Overcast
9:58 AM 32.5 °F 26.2 °F 24.1 °F 71% 29.61 in 10.0 mi SSW 6.9 mph - N/A   Partly Cloudy
10:58 AM 37.2 °F 29.1 °F 26.4 °F 65% 29.59 in 10.0 mi SW 12.7 mph - N/A   Scattered Clouds
11:58 AM 39.6 °F 31.7 °F 26.8 °F 60% 29.56 in 10.0 mi WSW 13.8 mph - N/A   Overcast
12:58 PM 39.6 °F 31.7 °F 27.0 °F 61% 29.54 in 10.0 mi WSW 13.8 mph - N/A   Overcast
1:58 PM 40.3 °F 33.0 °F 26.4 °F 58% 29.52 in 10.0 mi West 12.7 mph - N/A   Mostly Cloudy
2:58 PM 39.7 °F 33.2 °F 26.6 °F 59% 29.56 in 10.0 mi WSW 10.4 mph - N/A   Overcast
3:58 PM 40.3 °F 31.9 °F 27.0 °F 59% 29.57 in 10.0 mi WSW 16.1 mph - N/A   Partly Cloudy
4:56 PM 39.2 °F 29.8 °F 28.4 °F 65% 29.60 in 9.0 mi West 18.4 mph 20.7 mph N/A   Unknown
4:58 PM 39.2 °F 29.6 °F 28.4 °F 65% 29.62 in 7.0 mi West 19.6 mph - N/A   Unknown
5:07 PM 37.4 °F 27.5 °F 30.2 °F 75% 29.62 in 2.0 mi WNW 18.4 mph 25.3 mph N/A Snow Light Snow
5:17 PM 33.8 °F 23.5 °F 33.8 °F 100% 29.64 in 6.0 mi WNW 16.1 mph - N/A Snow Light Snow
5:58 PM 34.0 °F 23.0 °F 30.0 °F 85% 29.70 in 10.0 mi WNW 18.4 mph 21.9 mph 0.00 in   Mostly Cloudy
6:58 PM 32.5 °F 22.3 °F 23.2 °F 68% 29.74 in 10.0 mi WNW 15.0 mph 19.6 mph N/A   Mostly Cloudy
7:58 PM 29.3 °F 17.3 °F 18.0 °F 63% 29.79 in 10.0 mi NW 17.3 mph 26.5 mph N/A   Mostly Cloudy
8:58 PM 26.6 °F 11.4 °F 12.6 °F 55% 29.84 in 10.0 mi WNW 25.3 mph 33.4 mph N/A   Mostly Cloudy
9:58 PM 23.5 °F 8.7 °F 7.3 °F 50% 29.87 in 10.0 mi NNW 20.7 mph 32.2 mph N/A   Scattered Clouds
10:58 PM 21.7 °F 9.0 °F 6.6 °F 52% 29.91 in 10.0 mi North 13.8 mph - N/A   Overcast
11:58 PM 20.5 °F 8.6 °F 6.6 °F 55% 29.93 in 10.0 mi NNW 11.5 mph - N/A   Scattered Clouds